Weather History for KAWO - October, 2010

Change the Weather History Date:

Thursday, October 21, 2010

  Actual Average Record
Temperature  
Mean Temperature 48 °F -  
Max Temperature 60 °F 65 °F - (-1)
Min Temperature 37 °F 29 °F - (-1)
Degree Days  
Heating Degree Days 16    
Moisture  
Dew Point 44 °F    
Average Humidity 83    
Maximum Humidity 100    
Minimum Humidity 63    
Precipitation  
Precipitation 0.00 in - - ()
Sea Level Pressure  
Sea Level Pressure 29.89 in    
Wind  
Wind Speed 4 mph (SSE)    
Max Wind Speed 17 mph    
Max Gust Speed 23 mph    
Visibility 7 miles    
Events      
Averages and records for this station are not official NWS values.
T = Trace of Precipitation, MM = Missing Value Source: NWS Daily Summary

Daily Weather History Graph

Daily Weather History Graph

Search for Another Location

Airport or City:

Trip Planner

Search our weather history database for the weather conditions in past years. The results will help you decide how hot, cold, wet, or windy it might be!

Date:

Astronomy

Oct. 21, 2010 Rise Set
Actual Time 7:37 AM PDT 6:08 PM PDT
Civil Twilight 7:05 AM PDT 6:40 PM PDT
Nautical Twilight 6:29 AM PDT 7:16 PM PDT
Astronomical Twilight 5:53 AM PDT 7:52 PM PDT
Moon 5:10 PM PDT (10/21) 6:21 AM PDT (10/21)
Length of Visible Light 11h 34m
Length of Day
10h 31m
Waxing Gibbous, 98% of the Moon is Illuminated
Oct 21
Waxing Gibbous
Oct 22
Full
Oct 30
Last Quarter
Nov 5
New
Nov 13
First Quarter

Hourly Weather History & Observations

Time (PDT) Temp. Dew Point Humidity Pressure Visibility Wind Dir Wind Speed Gust Speed Precip Events Conditions
12:15 AM 42.8 °F 41.0 °F 93% 29.89 in 0.2 mi Calm Calm - N/A   Mostly Cloudy
12:35 AM 42.8 °F 41.0 °F 93% 29.89 in 0.8 mi Calm Calm - N/A   Mostly Cloudy
12:55 AM 41.0 °F 39.2 °F 93% 29.89 in 0.5 mi Calm Calm - N/A   Mostly Cloudy
1:15 AM 42.8 °F 39.2 °F 87% 29.89 in 1.5 mi Calm Calm - N/A   Mostly Cloudy
1:35 AM 39.2 °F 37.4 °F 93% 29.89 in 9.0 mi Calm Calm - N/A   Partly Cloudy
1:55 AM 41.0 °F 39.2 °F 93% 29.89 in 1.2 mi Calm Calm - N/A   Mostly Cloudy
2:15 AM 39.2 °F 39.2 °F 100% 29.89 in 9.0 mi Calm Calm - N/A   Scattered Clouds
2:35 AM 39.2 °F 37.4 °F 93% 29.89 in 10.0 mi Calm Calm - N/A   Mostly Cloudy
2:55 AM 41.0 °F 39.2 °F 93% 29.88 in 0.2 mi Calm Calm - N/A   Overcast
3:15 AM 39.2 °F 39.2 °F 100% 29.88 in 0.2 mi Calm Calm - N/A   Overcast
3:35 AM 39.2 °F 37.4 °F 93% 29.87 in 0.5 mi Calm Calm - N/A   Overcast
3:55 AM 39.2 °F 39.2 °F 100% 29.87 in 0.2 mi Calm Calm - N/A   Overcast
4:15 AM 39.2 °F 37.4 °F 93% 29.87 in 0.5 mi Calm Calm - N/A   Overcast
4:55 AM 39.2 °F 39.2 °F 100% 29.87 in 0.2 mi Calm Calm - N/A   Overcast
5:15 AM 39.2 °F 37.4 °F 93% 29.87 in 0.5 mi Calm Calm - N/A   Overcast
5:35 AM 37.4 °F 37.4 °F 100% 29.87 in 0.5 mi Calm Calm - N/A   Mostly Cloudy
5:55 AM 39.2 °F 37.4 °F 93% 29.87 in 0.5 mi Calm Calm - N/A   Overcast
6:15 AM 37.4 °F 35.6 °F 93% 29.87 in 0.5 mi Calm Calm - N/A   Overcast
6:35 AM 39.2 °F 39.2 °F 100% 29.88 in 0.5 mi Calm Calm - N/A   Overcast
6:55 AM 37.4 °F 35.6 °F 93% 29.87 in 8.0 mi Calm Calm - N/A   Mostly Cloudy
7:15 AM 37.4 °F 35.6 °F 93% 29.88 in 1.0 mi Calm Calm - N/A   Overcast
7:35 AM 37.4 °F 35.6 °F 93% 29.87 in 4.0 mi Calm Calm - N/A   Mostly Cloudy
7:55 AM 37.4 °F 35.6 °F 93% 29.87 in 9.0 mi Calm Calm - N/A   Scattered Clouds
12:15 PM 57.2 °F 50.0 °F 77% 29.89 in 10.0 mi South 10.4 mph - N/A   Clear
12:35 PM 59.0 °F 50.0 °F 72% 29.89 in 10.0 mi South 12.7 mph - N/A   Partly Cloudy
12:55 PM 57.2 °F 50.0 °F 77% 29.89 in 10.0 mi SSE 12.7 mph - N/A   Clear
1:15 PM 57.2 °F 48.2 °F 72% 29.89 in 10.0 mi South 11.5 mph - N/A   Scattered Clouds
1:55 PM 59.0 °F 50.0 °F 72% 29.88 in 10.0 mi South 11.5 mph - N/A   Partly Cloudy
2:15 PM 59.0 °F 51.8 °F 77% 29.88 in 10.0 mi SSE 12.7 mph - N/A   Partly Cloudy
2:55 PM 60.8 °F 50.0 °F 68% 29.88 in 10.0 mi South 13.8 mph 23.0 mph N/A   Partly Cloudy
3:35 PM 60.8 °F 51.8 °F 72% 29.88 in 10.0 mi SSE 12.7 mph - N/A   Partly Cloudy
3:55 PM 60.8 °F 48.2 °F 63% 29.88 in 10.0 mi SSE 15.0 mph - N/A   Partly Cloudy
4:15 PM 59.0 °F 48.2 °F 67% 29.88 in 10.0 mi SSE 10.4 mph - N/A   Partly Cloudy
4:35 PM 59.0 °F 50.0 °F 72% 29.89 in 10.0 mi SSE 15.0 mph - N/A   Partly Cloudy
4:55 PM 57.2 °F 48.2 °F 72% 29.89 in 10.0 mi SE 13.8 mph - N/A   Partly Cloudy
5:15 PM 57.2 °F 48.2 °F 72% 29.89 in 10.0 mi SSE 17.3 mph 23.0 mph N/A   Mostly Cloudy
5:35 PM 57.2 °F 48.2 °F 72% 29.90 in 10.0 mi SE 15.0 mph 19.6 mph N/A   Overcast
6:15 PM 57.2 °F 48.2 °F 72% 29.91 in 10.0 mi SE 10.4 mph - N/A   Overcast
6:35 PM 55.4 °F 48.2 °F 77% 29.91 in 10.0 mi SE 13.8 mph 19.6 mph N/A   Overcast
6:55 PM 55.4 °F 48.2 °F 77% 29.90 in 10.0 mi ESE 13.8 mph 20.7 mph N/A   Mostly Cloudy
7:15 PM 57.2 °F 48.2 °F 72% 29.90 in 10.0 mi SE 16.1 mph 21.9 mph N/A   Overcast
7:35 PM 57.2 °F 48.2 °F 72% 29.90 in 10.0 mi ESE 12.7 mph 18.4 mph N/A   Overcast
7:55 PM 57.2 °F 48.2 °F 72% 29.90 in 10.0 mi SE 6.9 mph - N/A   Overcast
8:15 PM 57.2 °F 48.2 °F 72% 29.89 in 10.0 mi SE 9.2 mph - N/A   Overcast
8:35 PM 57.2 °F 48.2 °F 72% 29.89 in 10.0 mi ESE 9.2 mph - N/A   Overcast
8:55 PM 57.2 °F 48.2 °F 72% 29.88 in 10.0 mi ESE 8.1 mph - N/A   Overcast
9:35 PM 57.2 °F 48.2 °F 72% 29.89 in 10.0 mi SE 10.4 mph - N/A   Overcast
9:55 PM 57.2 °F 48.2 °F 72% 29.89 in 10.0 mi South 8.1 mph - N/A   Overcast
10:15 PM 55.4 °F 48.2 °F 77% 29.89 in 10.0 mi South 9.2 mph - N/A   Overcast
10:35 PM 55.4 °F 48.2 °F 77% 29.89 in 10.0 mi SSW 4.6 mph - N/A   Overcast
10:55 PM 55.4 °F 48.2 °F 77% 29.89 in 10.0 mi SW 5.8 mph - N/A   Overcast
11:15 PM 55.4 °F 48.2 °F 77% 29.88 in 10.0 mi SE 4.6 mph - N/A   Overcast
11:35 PM 57.2 °F 48.2 °F 72% 29.88 in 10.0 mi SE 10.4 mph - N/A   Overcast
11:55 PM 57.2 °F 48.2 °F 72% 29.88 in 10.0 mi ESE 9.2 mph - N/A   Overcast